Skip Page Navigation
NASA JPL Caltech
NASA Logo - Jet Propulsion Laboratory + View the NASA Portal
+ Center for Near-Earth Object Studies
JPL Home Earth Solar System Stars & Galaxies Technology
JPL Solar System Dynamics
BODIES ORBITS EPHEMERIDES TOOLS PHYSICAL DATA DISCOVERY FAQ SITE MAP
JPL Small-Body Database Browser
Search: [ help ]  
72154 (2000 YY97)
Classification: Main-belt Asteroid          SPK-ID: 2072154
Ephemeris | Orbit Diagram | Orbital Elements | Mission Design | Physical Parameters | Discovery Circumstances | Close-Approach Data ]

[ show orbit diagram ]
Orbital Elements at Epoch 2459396.5 (2021-Jul-01.0) TDB
Reference: JPL 20 (heliocentric ecliptic J2000)
 Element Value Uncertainty (1-sigma)   Units 
e .1694588506129284 2.8433e-08  
a 2.312095170952558 8.071e-09 au
q 1.920290180775235 6.6309e-08 au
i .7296024048294034 3.9467e-06 deg
node 310.2869490615487 0.00030924 deg
peri 130.7297445522915 0.00030964 deg
M 323.8436569468922 1.5519e-05 deg
tp 2459525.470084507318
(2021-Nov-06.97008451)
5.5671e-05 TDB
period 1284.124070690378
3.52
6.7239e-06
1.841e-08
d
yr
n .2803467423567994 1.4679e-09 deg/d
Q 2.703900161129881 9.4387e-09 au
  Orbit Determination Parameters
   # obs. used (total)      977  
   data-arc span      9276 days (25.40 yr)  
   first obs. used      1994-02-08  
   last obs. used      2019-07-03  
   planetary ephem.      DE441  
   SB-pert. ephem.      SB441-N16  
   condition code      0  
   norm. resid. RMS      .51345  
   source      ORB  
   producer      Otto Matic  
   solution date      2021-Apr-13 13:00:32  

Additional Information
 Earth MOID = .936109 au 
 Jupiter MOID = 2.52311 au 
 T_jup = 3.564 
[ show covariance matrix ]

Ephemeris | Orbit Diagram | Orbital Elements | Mission Design | Physical Parameters | Discovery Circumstances | Close-Approach Data ]

Physical Parameter Table
Parameter Symbol Value Units Sigma Reference Notes
absolute magnitude H 15.97   n/a MPCxxxxx  

72154 (2000 YY97)          Discovered 2000-Dec-30 by LINEAR at Socorro
Reference: 20031109/Numbers.arcLast Updated: 2004-04-19

[ show close-approach data ]
Ephemeris | Orbit Diagram | Orbital Elements | Mission Design | Physical Parameters | Discovery Circumstances | Close-Approach Data ]
ABOUT SSD CREDITS/AWARDS PRIVACY/COPYRIGHT GLOSSARY LINKS
FirstGov 2021-Jul-29 07:06 UT
(server date/time)  
NASA Home Page
Site Manager:   Ryan S. Park
Webmaster  Alan B. Chamberlin